Weather in Yekaterinburg

Russia / Sverdlovsk Oblast     56°50′16″N   60°35′50″E
temp.,
°C
wind,
m/s
gust,
m/s
humid.,
%
clouds,
%
prec.,
mm/h
press.,
hPa
HPBL,
m
7 may, fri
fri723:00+5wsw28660 0.0 1016174
02:00+4wsw27761 0.0 1018129
05:00+3wsw24852 0.0 101984
08:00+10w3664100 0.0 1019373
11:00+16wsw344457 0.0 10191209
14:00+19wsw343725 0.0 10182072
17:00+20wsw333210 0.0 10172424
20:00+15wnw245348 0.0 1018104
8 may, sat
sat823:00+12wsw216772 0.0 101924
02:00+10sw11765 0.0 101910
05:00+9sw117763 0.0 101910
08:00+14se0158100 0.0 1018183
11:00+20se1135100 0.0 10181531
14:00+21ese2126100 0.0 10162808
17:00+20ese2226100 0.0 10162729
20:00+16ne1143100 0.0 101619
9 may, sun
sun923:00+12nnw2669100 0.0 1018141
02:00+11n2375100 0.0 101745
05:00+9nne2479100 0.0 101876
08:00+13ne2461100 0.0 1018309
11:00+19ene2437100 0.0 10181406
14:00+20e4530100 0.0 10172550
17:00+18n344255 0.0 1018585
20:00+15nnw0059100 0.1 101911
10 may, mon
mon1023:00+12n226897 0.1 102033
02:00+10ne127596 0.0 102116
05:00+9nnw008237 0.0 102210
08:00+15ne23615 0.0 1023351
11:00+20e234068 0.0 10231557
14:00+19ese2242100 0.0 10231116
17:00+19s1243100 0.0 1023934
20:00+16wsw22555 0.0 102334
11 may, tue
tue1123:00+13wsw226570 0.0 102314
02:00+12wsw2264100 0.0 102321
05:00+13wsw2361100 0.0 102344
08:00+14wnw3967100 0.0 1023413
11:00+16wnw4666100 0.6 1024897
14:00+17nw465756 0.7 10231472
17:00+16nnw5757100 0.8 1024978
20:00+13n497086 0.0 1025678